User: anonymous
Location: Austin, TX
(30.3000°N, 97.7500°W)
Time: 21:25:42
(UTC-05:00)
Language:

Cosmos 2082 Rocket - Orbit

View from above orbital plane
View from above orbital plane
View from above satellite
View from above satellite

Ground track
Ground track

The orbit data is extracted from the following two-line orbital elements,

1 20625U 90046B   14213.14139853  .00000178  00000-0  11720-3 0  7751
2 20625 070.9993 194.9469 0016485 266.1370 165.5693 14.14532540249206
Epoch (UTC): 01 August 2014 03:23:36
Eccentricity: 0.0016485
inclination: 70.9993°
perigee height: 832 km
apogee height: 856 km
right ascension of ascending node: 194.9469°
argument of perigee: 266.1370°
revolutions per day: 14.14532540
mean anomaly at epoch: 165.5693°
orbit number at epoch: 24920

The dashed part of the orbit path shows where the satellite is in the earth's shadow,  

DLR